Location: Guadanolo
(41.9167°N, 12.9333°E)
Time: 10:54:00
(UTC+00:00)

Nadezhda 1 Rocket - Pass Details

Date: 21 December 2019
Orbit: 941 x 1006 km, 83.0° (Epoch: 20 January)

Event Time Altitude Azimuth Distance (km) Brightness Sun altitude
Rises 05:39:38 0° 124° (ESE) 3,688 9.0 -9.6°
Reaches altitude 10° 05:45:10 10° 84° (E) 2,728 7.4 -8.6°
Maximum altitude 05:45:52 10° 77° (ENE) 2,711 7.2 -8.5°
Drops below altitude 10° 05:46:35 10° 70° (ENE) 2,724 7.1 -8.4°
Sets 05:52:03 0° 31° (NNE) 3,659 7.1 -7.5°
